Theta_e
330 330 335 327 327 329 329 331 331 330 329 328 327 326 326 325 325 325 327 328 329 329 329 330 331 331 330 330 329 328 328 326 321 319 320 322 331 329 316 315 318 317 315 314 315 314 314 313 313 314 319 323 324 325 326 326 327 328 328 329 329 330 329 328 327 325 324 324 323 322 322 324 324 324 323 322 323 324 324 327 330 330 327 324 323
327 328 328 324 327 328 329 330 329 330 328 329 327 327 326 325 325 325 327 328 328 328 328 328 328 329 328 329 328 329 328 328 325 323 322 319 328 330 317 315 320 317 314 314 314 314 314 313 313 316 320 323 324 324 325 326 327 328 329 329 329 330 330 329 328 326 324 325 325 324 323 324 325 325 324 323 323 323 324 324 327 328 325 323 323
323 324 323 322 325 326 328 328 329 329 327 328 327 327 326 325 325 326 327 327 328 328 328 328 328 329 328 329 328 329 329 328 327 325 324 319 325 331 319 315 321 317 314 314 314 314 314 313 314 317 320 322 323 324 325 327 328 329 329 329 329 330 330 330 329 327 325 326 328 328 325 324 325 326 325 324 323 323 323 322 324 325 324 323 322
319 320 325 322 323 326 326 328 327 327 327 327 327 326 326 325 325 326 326 327 328 328 327 328 327 327 327 327 327 328 328 328 327 325 322 316 323 331 322 317 321 319 314 314 314 314 314 313 314 317 319 321 322 324 326 327 329 329 329 329 329 330 330 330 329 329 327 327 330 332 330 325 324 325 325 325 324 324 324 323 322 322 323 322 322
319 319 324 322 322 325 325 326 326 326 326 326 326 326 326 325 325 325 325 325 326 326 325 324 322 321 322 322 322 324 325 327 327 327 322 315 323 330 324 322 325 321 314 314 314 314 314 313 314 317 319 321 323 324 326 327 329 330 330 330 330 330 330 330 330 331 330 329 332 334 333 328 324 324 325 325 326 325 325 325 324 323 323 323 323
319 319 321 320 322 323 324 325 325 325 326 326 325 326 326 326 326 325 323 324 325 324 321 317 315 314 315 316 315 318 321 325 327 331 327 318 324 331 327 326 327 321 314 314 314 314 314 313 315 317 318 320 323 324 326 327 328 330 330 330 331 330 330 330 330 331 332 332 334 334 334 332 326 323 324 325 325 326 326 326 325 325 324 325 326
319 319 320 320 325 323 321 323 324 324 325 326 325 326 326 328 327 324 322 324 324 321 316 310 309 309 310 310 311 316 318 323 328 332 331 324 325 329 328 327 327 321 314 313 314 313 313 313 315 317 318 320 322 325 326 326 328 330 330 330 331 331 330 331 331 331 332 334 335 334 335 334 328 322 323 322 323 325 326 326 326 325 324 325 327
318 319 319 320 326 322 320 322 323 323 324 325 326 327 327 329 327 323 323 323 322 319 313 309 308 308 309 309 313 317 318 325 330 333 334 328 326 327 326 326 325 320 313 314 313 313 314 313 316 317 318 321 322 325 327 327 328 330 330 330 330 331 330 331 331 331 333 335 334 334 335 335 331 325 322 321 322 324 326 328 327 325 325 324 326
318 320 319 319 322 319 319 321 322 323 324 324 325 326 327 329 325 323 324 323 322 318 313 309 309 309 309 311 315 318 321 328 332 334 335 329 326 325 324 325 324 318 313 314 313 313 313 313 316 317 318 321 323 325 327 328 329 330 330 329 330 330 330 331 332 333 335 336 334 334 334 335 334 327 323 321 322 325 327 330 329 327 327 326 326
318 319 319 320 320 319 319 320 322 322 323 323 324 326 327 329 325 323 324 322 321 318 314 310 309 309 309 310 314 317 322 328 332 334 333 327 323 322 322 324 322 315 313 313 313 314 313 313 315 317 318 321 323 325 327 328 330 330 329 329 329 329 330 331 332 334 337 337 335 333 330 332 332 327 323 322 324 327 328 329 329 329 328 327 327
319 319 319 319 319 319 319 321 321 322 324 323 324 325 327 328 326 324 324 322 321 318 314 311 309 310 310 310 311 314 320 325 330 333 330 324 321 320 322 322 318 313 313 314 313 313 313 313 314 316 318 320 323 324 326 328 329 329 329 329 329 329 330 331 333 336 337 336 335 334 331 330 329 326 325 325 327 328 329 329 328 329 329 328 328
319 319 319 319 319 319 319 321 321 323 324 324 324 325 327 328 326 324 324 323 321 318 312 310 310 309 311 311 311 312 316 322 328 332 329 323 319 321 321 318 315 313 313 313 313 313 313 312 313 315 317 319 322 324 325 327 328 327 327 327 328 329 330 331 334 337 337 336 335 334 334 331 328 328 329 329 329 329 329 329 329 329 329 329 328
319 319 319 319 319 320 320 321 322 323 323 323 325 325 327 328 327 325 324 324 321 317 311 310 310 310 312 313 314 315 316 321 329 332 328 322 319 320 318 315 313 313 313 313 314 313 313 312 313 315 317 319 321 322 324 326 326 325 324 326 327 328 330 332 335 337 336 336 336 335 332 328 327 329 332 331 331 330 329 330 330 330 329 328 328
319 318 318 319 319 319 320 320 322 323 323 324 324 325 328 328 327 326 325 324 321 316 312 309 309 310 312 315 320 322 320 322 328 331 328 321 319 318 315 313 313 313 313 313 313 313 313 312 313 314 316 318 320 321 321 322 321 319 321 324 325 326 329 333 335 336 336 336 335 336 332 326 327 329 331 332 331 330 330 330 330 330 328 327 327
319 319 318 319 319 320 321 321 322 323 323 323 324 325 327 329 328 327 326 326 321 316 313 310 309 309 313 319 322 323 324 325 327 329 329 321 317 317 314 314 313 313 313 313 313 313 313 312 313 314 315 318 319 318 317 317 316 315 318 321 324 326 331 334 336 336 336 337 335 336 333 327 327 329 330 332 331 330 330 330 329 329 328 326 325
319 319 319 319 318 320 321 322 323 323 323 324 325 325 327 329 328 328 328 327 322 315 314 311 309 309 313 318 319 321 327 331 329 326 328 323 318 316 314 314 313 313 313 313 313 312 313 312 313 314 316 317 317 316 315 314 314 313 316 320 324 328 331 335 337 337 337 337 336 337 334 329 327 330 331 331 331 330 330 330 329 329 327 325 324
320 319 318 319 318 320 320 322 324 323 323 324 325 326 328 329 328 329 328 328 324 316 315 312 309 309 309 313 316 321 327 332 330 326 329 326 321 316 313 314 313 313 313 312 313 312 313 312 313 314 316 317 317 315 314 314 313 313 318 322 326 330 331 334 337 337 336 336 336 336 334 328 327 330 331 331 331 331 330 330 330 328 327 325 324
320 320 318 320 322 323 324 324 325 325 323 326 330 329 329 330 329 329 329 329 326 320 317 313 310 309 309 310 312 319 325 329 330 328 329 327 322 316 313 313 314 313 313 313 312 313 312 312 313 315 317 317 317 315 314 313 312 315 321 324 327 330 331 335 338 337 337 337 338 336 330 327 328 330 330 331 332 330 330 330 330 328 327 326 324
319 320 318 324 330 331 333 331 329 332 328 327 335 334 330 330 331 330 330 329 329 324 318 314 310 308 309 309 310 314 321 327 328 328 329 326 322 318 314 313 314 313 313 313 313 312 312 313 313 315 317 317 317 315 315 312 313 318 322 325 328 331 333 336 337 337 337 337 338 335 328 328 330 331 331 331 331 330 330 330 329 328 328 326 325
320 319 318 329 337 337 338 338 335 336 334 331 337 338 333 331 331 331 330 330 331 327 320 315 309 309 309 309 309 309 317 324 325 329 330 326 322 319 316 313 313 313 313 313 313 312 312 313 313 316 318 318 317 315 313 313 316 321 324 328 330 334 336 338 337 337 337 336 336 333 329 330 331 331 331 330 330 330 330 330 329 328 328 326 325
324 324 326 335 340 338 338 340 337 338 338 336 338 339 336 334 334 334 332 331 333 330 322 316 309 309 309 309 310 308 317 324 325 330 330 326 323 318 316 313 313 313 313 313 313 313 312 312 314 315 317 318 317 315 314 316 320 324 327 330 333 337 337 338 338 336 336 335 334 331 328 330 331 331 331 331 331 330 330 330 328 328 328 326 324
332 333 335 338 340 340 339 339 339 339 339 339 338 339 337 337 337 337 335 333 335 333 328 323 315 312 309 309 310 308 317 322 326 330 328 326 323 317 315 313 313 313 313 314 313 313 313 313 314 315 317 318 316 316 316 317 322 326 329 331 334 337 336 337 338 336 336 335 334 330 329 330 330 330 330 330 331 331 330 329 327 327 327 325 322
339 339 340 340 340 340 340 339 340 339 339 339 338 339 337 337 338 338 337 336 336 335 333 330 325 321 312 310 314 311 314 319 324 328 327 326 324 318 316 313 313 313 312 313 313 313 313 313 314 315 317 316 319 323 323 322 323 326 329 330 333 335 335 337 338 336 336 335 333 329 327 328 328 329 330 330 330 331 330 328 327 326 325 323 317
341 342 341 341 341 341 340 339 340 339 339 339 338 339 338 337 339 339 338 337 336 336 335 331 329 327 317 317 323 315 312 317 321 325 328 329 326 319 315 314 313 312 313 313 312 313 312 313 313 315 317 319 325 330 331 330 326 327 329 329 332 334 335 337 336 336 336 333 330 326 325 324 325 327 328 328 328 329 328 327 325 324 323 318 309
342 342 342 342 341 341 341 339 339 339 339 339 338 339 338 338 339 339 338 337 336 336 335 331 327 326 319 319 323 314 309 313 315 319 327 331 329 325 320 318 316 313 313 312 314 313 312 316 316 316 322 327 330 331 332 331 328 329 329 328 332 334 335 337 336 336 335 332 327 324 324 324 324 325 326 326 326 326 325 323 323 322 319 310 302
343 342 341 340 341 341 341 339 339 339 338 338 338 338 338 338 339 339 338 338 337 337 335 328 321 318 315 312 314 311 310 311 309 313 321 325 327 328 327 326 325 320 313 313 316 314 316 324 326 326 328 330 331 329 328 327 328 330 326 327 333 334 335 337 336 336 334 332 327 325 326 326 325 325 325 325 324 323 322 321 322 319 311 303 301
342 341 338 338 339 340 341 340 339 339 338 338 338 338 338 338 339 338 338 338 338 337 334 323 312 310 310 310 311 311 311 311 310 310 314 314 316 324 326 326 328 325 316 315 316 314 318 325 327 327 328 329 331 329 326 325 328 330 327 329 334 334 335 336 335 335 334 332 330 327 327 327 326 325 324 323 321 321 320 320 317 310 303 301 301
340 339 337 336 338 340 341 341 340 339 338 338 338 338 338 338 338 338 338 338 338 337 332 319 309 309 309 310 311 311 310 310 310 310 310 309 309 313 316 318 322 322 317 316 319 317 319 322 321 320 324 329 331 328 327 327 326 328 329 331 334 335 335 335 335 335 333 332 331 329 328 328 326 324 323 321 320 320 318 314 308 303 301 301 301
341 339 339 337 336 339 340 341 340 339 338 337 337 338 338 337 337 338 338 338 337 336 332 316 307 309 309 310 311 311 311 310 310 310 309 309 309 309 310 312 313 316 314 315 321 320 319 320 319 318 325 330 330 329 329 329 327 327 330 332 335 335 335 335 335 334 333 331 331 330 329 328 325 323 322 321 320 316 311 305 302 301 301 301 301
341 339 339 339 336 336 338 340 339 339 338 338 337 337 337 337 337 337 337 338 337 336 329 312 308 309 309 310 311 312 313 313 313 312 312 310 310 309 309 310 310 312 313 314 317 318 320 323 320 322 328 330 330 330 329 331 332 330 332 335 335 335 335 335 334 333 332 331 330 330 328 327 324 323 322 321 316 308 303 301 301 301 301 301 300
341 341 340 339 339 335 335 336 338 339 338 337 337 337 337 337 337 337 337 337 336 335 325 310 308 308 309 311 312 314 315 317 317 316 316 315 314 313 311 310 310 311 312 313 313 314 320 325 325 327 330 330 332 330 330 334 335 335 335 335 335 335 335 333 333 331 330 329 329 329 328 326 323 323 322 317 309 302 301 301 301 301 300 300 300
341 341 340 340 341 339 334 333 335 337 337 338 337 337 338 337 337 336 336 337 336 333 324 311 308 308 309 311 313 316 319 321 322 323 323 321 321 321 317 313 311 311 310 311 311 312 316 322 325 327 328 330 332 329 332 336 336 336 336 335 336 334 333 333 331 329 329 329 327 327 327 325 323 322 319 310 302 301 301 300 300 301 300 300 300
340 340 340 341 342 340 338 336 336 336 335 336 337 337 337 337 337 336 336 337 335 332 324 312 308 308 309 312 315 318 322 325 327 327 327 327 328 328 325 321 320 318 316 312 311 311 313 320 323 325 326 329 331 330 334 337 336 336 336 335 335 333 331 332 331 329 328 328 327 325 325 324 322 321 312 304 301 301 301 300 300 300 300 300 299
338 339 338 340 341 341 340 339 338 337 334 335 336 336 336 336 336 336 337 337 335 332 324 313 307 308 309 313 319 322 324 327 329 329 330 331 330 330 330 329 330 329 328 325 323 321 321 323 326 328 331 332 335 335 336 337 336 335 335 335 333 331 329 330 331 330 328 328 327 325 323 321 322 319 306 300 301 301 300 301 300 300 300 300 299
337 338 338 338 340 340 340 339 338 338 335 334 335 335 335 335 335 335 335 335 334 332 325 314 308 308 310 316 321 323 325 328 329 330 331 333 331 330 331 332 333 333 334 334 333 332 330 330 331 333 335 335 337 336 336 337 336 335 335 334 332 331 330 330 331 328 328 329 327 325 323 320 320 316 307 303 301 300 300 300 300 300 299 299 299
335 336 337 338 339 339 339 339 338 337 335 334 334 334 333 333 334 334 332 331 332 333 327 316 309 307 314 324 326 323 329 332 331 330 331 333 333 333 333 333 333 333 334 334 333 333 332 333 333 334 335 336 337 336 337 336 335 334 334 332 331 332 332 332 331 327 327 327 325 325 323 321 318 310 308 309 303 299 300 300 299 300 299 299 299
335 337 337 337 339 339 340 339 339 338 337 335 334 334 332 330 330 332 331 329 331 333 330 319 310 308 315 327 330 328 332 335 333 331 331 332 334 335 334 333 332 332 333 333 332 333 333 333 334 334 335 336 336 336 336 335 333 333 333 332 331 333 332 331 331 329 328 326 324 323 321 321 315 302 304 311 308 301 299 300 299 299 299 299 299
334 337 337 338 338 339 340 340 339 339 339 336 334 334 333 328 327 329 329 329 332 333 332 324 312 308 313 321 329 332 334 336 335 333 332 332 334 335 334 333 332 332 332 332 333 333 333 333 333 333 334 336 336 336 336 334 333 333 332 332 332 332 332 331 330 329 328 326 325 322 321 320 310 300 302 307 309 305 300 299 299 299 299 299 299
331 335 338 338 338 339 340 340 340 339 339 338 334 333 334 331 327 328 329 331 334 333 333 328 316 310 310 315 326 333 334 336 336 333 332 333 334 334 334 332 331 332 332 332 332 333 333 333 332 332 333 335 336 336 335 334 333 332 331 331 333 332 331 331 329 328 327 325 324 321 321 318 306 300 302 303 305 304 300 299 302 305 301 298 299
328 333 337 338 338 338 340 341 340 340 340 340 337 335 335 333 328 329 331 334 335 335 335 332 321 313 310 311 325 334 335 335 334 330 331 333 334 334 333 330 331 332 331 331 332 332 333 333 332 332 333 334 335 335 334 333 331 330 331 332 332 332 331 330 328 328 326 324 323 320 320 317 305 299 302 303 302 301 300 300 305 309 304 298 298
327 331 335 337 338 338 339 340 340 340 340 340 339 337 335 333 330 330 332 335 336 336 337 335 328 319 311 310 321 329 331 331 331 329 330 333 334 334 333 330 330 332 332 332 332 333 333 333 332 332 333 333 333 333 331 331 331 330 331 331 331 330 330 329 328 328 325 322 320 319 319 316 307 302 302 301 300 300 300 300 303 306 305 303 301
326 328 331 335 337 337 337 338 339 339 341 340 340 338 335 333 331 330 332 336 337 336 337 337 332 324 316 311 315 321 325 326 329 329 329 331 333 334 333 331 330 332 332 332 333 334 334 332 331 332 332 332 332 331 329 330 331 331 331 330 329 329 328 328 328 327 324 320 319 319 319 315 308 305 302 300 301 301 302 302 301 302 302 304 305
327 330 332 334 337 337 336 337 337 338 340 340 340 339 337 333 329 328 332 336 338 337 337 337 335 330 323 317 315 320 324 325 329 329 328 329 331 333 333 330 331 332 332 333 334 334 334 332 330 331 332 330 331 331 330 331 331 331 331 329 328 327 326 326 326 326 323 321 319 317 317 314 309 307 303 302 303 304 305 304 301 301 299 300 304
328 332 333 334 335 335 335 336 336 336 338 339 340 340 338 335 328 325 330 335 337 338 336 337 338 334 328 323 321 323 327 329 332 332 329 326 327 332 332 329 329 330 332 333 333 334 334 332 329 330 331 331 331 330 331 331 331 331 330 329 328 327 326 325 323 324 323 322 320 317 316 314 311 309 305 305 307 306 305 305 302 301 300 299 300
326 329 330 331 331 333 333 334 334 335 335 337 340 340 339 338 333 327 330 335 338 338 338 337 339 337 331 326 325 327 329 331 333 333 330 324 325 330 331 329 328 329 332 333 334 333 334 332 329 330 330 331 332 331 331 331 331 331 330 328 328 328 328 326 323 323 323 321 320 318 318 315 312 309 307 307 309 307 306 306 303 301 300 300 300
325 326 326 326 326 329 332 334 334 334 334 335 337 339 339 339 336 329 331 336 338 338 339 339 339 339 333 329 329 330 331 332 332 331 329 323 325 330 330 330 329 329 331 334 333 333 334 333 331 331 331 332 332 332 332 331 331 331 330 329 328 328 329 326 325 324 322 320 319 318 318 316 313 310 308 308 309 308 307 307 304 302 301 301 301
326 326 326 325 327 330 332 334 334 334 334 335 335 336 338 339 337 331 329 334 338 339 339 339 340 339 336 332 331 332 333 334 332 332 330 325 325 328 329 330 331 330 331 334 334 333 333 333 332 332 332 333 333 333 333 332 332 331 330 329 328 328 328 326 326 326 324 321 319 319 320 318 315 312 309 309 309 308 307 306 305 304 304 302 302
324 324 323 324 327 331 334 335 335 334 333 334 335 335 335 337 337 335 329 329 334 337 339 340 340 340 338 336 334 334 336 335 333 333 331 328 326 326 329 332 332 331 331 333 333 333 333 333 333 333 334 334 334 333 333 332 331 330 329 329 328 328 328 327 327 326 326 324 321 320 321 320 318 315 311 309 309 309 306 305 306 307 306 304 304
323 323 324 324 327 330 335 337 337 336 334 335 336 336 335 334 335 335 332 328 329 335 339 339 339 340 339 338 337 337 337 336 335 334 332 330 328 326 330 333 332 331 332 332 332 333 334 333 334 334 334 334 334 333 333 332 330 329 329 329 328 327 327 327 327 327 327 327 324 320 319 320 320 317 312 309 309 309 306 305 306 308 307 304 304
323 325 328 329 329 331 334 337 338 337 336 335 335 337 337 335 333 333 334 332 330 335 339 339 339 340 339 338 339 339 337 336 335 334 332 333 331 327 331 334 332 331 332 332 332 333 334 334 334 334 333 333 333 333 332 332 332 330 329 329 328 327 327 326 326 326 326 327 326 323 321 320 319 318 315 310 308 307 306 305 305 306 307 306 305
322 325 332 333 331 331 334 336 337 337 337 337 336 337 339 338 335 333 333 333 332 334 338 340 340 339 339 339 339 339 338 336 335 333 333 334 332 329 331 334 332 331 332 333 333 333 334 335 334 333 333 333 333 333 332 332 332 330 329 329 328 327 327 327 326 327 326 326 326 325 323 321 320 318 316 312 307 306 306 306 306 306 306 306 306
Wind_Speed
22 22 19 23 22 22 20 17 16 14 13 13 12 10 10 9 9 10 10 12 12 13 13 14 14 14 14 14 14 13 13 13 14 14 13 13 13 14 15 16 16 16 17 18 17 17 16 16 16 15 13 12 12 13 14 15 16 17 18 19 19 20 20 20 21 20 20 22 23 23 23 21 21 20 20 20 20 20 18 18 15 13 15 15 15
25 25 20 22 23 22 20 18 16 14 14 13 13 12 11 10 10 10 10 10 11 11 12 12 12 13 13 13 13 13 13 12 12 13 13 13 14 15 16 17 17 16 18 17 17 16 16 16 15 14 12 12 13 14 14 15 16 17 17 17 18 18 19 19 20 19 19 21 21 22 23 22 21 21 20 20 20 20 19 18 16 14 16 17 16
24 25 20 21 22 22 21 18 16 15 14 13 13 12 12 10 10 10 10 9 9 9 9 10 11 11 12 12 13 13 12 12 12 12 13 14 16 16 16 17 17 16 17 17 17 16 16 16 14 12 11 11 13 13 13 13 15 16 16 16 16 17 18 18 19 19 19 19 20 21 21 20 21 20 20 20 19 19 19 19 18 17 18 18 17
22 22 20 21 22 22 22 19 17 15 14 14 13 13 12 11 11 10 10 9 9 8 8 9 10 11 12 13 13 13 12 12 12 12 14 16 18 18 17 17 16 16 17 17 16 16 16 15 13 11 10 10 12 13 12 13 13 14 14 14 15 15 16 17 17 18 18 18 20 19 17 18 19 19 20 19 19 18 19 19 19 18 18 18 18
22 21 20 21 22 21 22 20 17 16 15 14 13 13 12 11 11 10 9 9 9 8 8 9 10 11 12 13 13 13 13 13 13 12 13 17 19 18 18 16 15 15 17 17 16 15 15 14 12 11 10 10 11 12 12 12 12 13 13 13 13 13 15 16 16 17 17 17 20 16 13 16 17 18 19 18 19 18 18 18 18 18 17 17 18
22 21 19 21 22 21 21 20 18 16 15 14 14 13 12 12 11 9 10 10 10 10 9 9 10 11 12 13 14 14 15 15 14 13 13 17 19 18 17 16 15 16 17 16 16 15 14 13 11 10 9 9 10 11 12 11 12 12 12 12 11 11 13 15 16 16 15 16 17 13 11 13 16 17 18 18 17 17 17 17 17 17 16 16 17
23 21 19 19 20 20 20 19 18 16 15 15 14 13 12 12 11 10 10 11 11 11 10 9 10 12 13 13 14 14 16 18 16 14 14 16 18 17 17 16 17 17 17 16 15 15 14 13 11 10 8 8 9 10 10 11 11 11 11 10 9 10 12 14 15 15 16 15 13 11 11 11 14 17 17 17 16 15 15 15 15 16 16 15 15
24 21 20 19 18 19 20 19 17 16 15 15 15 14 12 12 10 10 11 11 11 11 9 9 11 13 13 14 14 15 18 19 16 14 13 15 17 17 17 17 18 18 17 16 15 15 13 12 10 9 8 8 8 9 9 10 10 10 10 9 9 9 11 13 13 15 17 14 11 11 11 11 13 15 17 16 15 14 14 14 14 14 14 14 14
25 22 21 19 18 18 19 19 18 16 14 14 15 14 13 12 10 10 11 11 11 11 10 10 12 13 14 15 15 16 21 21 17 15 14 15 17 17 17 18 18 19 18 16 15 14 13 11 10 9 7 7 7 7 7 8 8 9 8 9 9 8 10 11 12 15 14 11 11 11 10 10 11 13 15 16 15 14 14 13 12 13 13 13 13
26 23 22 20 18 18 19 19 18 16 15 14 14 14 13 12 10 10 11 11 11 11 10 11 12 14 14 14 15 18 21 21 18 15 15 16 17 17 18 18 19 19 18 16 15 14 13 11 9 8 7 6 6 7 7 7 7 7 7 8 8 9 9 10 13 15 10 7 10 11 11 11 9 10 13 14 13 13 13 11 10 11 12 12 12
26 24 22 20 18 17 18 19 18 17 15 14 14 14 13 12 10 10 10 10 10 10 10 11 12 14 14 14 16 18 19 19 18 15 16 17 17 18 18 19 20 19 17 16 15 14 13 11 9 8 6 5 5 5 6 6 5 5 6 8 8 9 9 10 13 11 7 7 8 10 11 11 9 9 11 13 12 11 11 10 10 11 11 12 12
25 23 22 20 19 17 18 18 18 17 16 15 14 14 13 12 11 10 10 9 9 9 10 11 12 14 15 15 16 18 18 19 19 16 17 17 17 18 18 20 20 19 17 15 15 14 12 10 9 7 5 4 4 4 4 4 4 4 5 7 7 8 8 11 12 7 6 6 8 9 10 9 8 8 10 11 10 10 10 10 10 10 11 11 11
25 24 22 21 20 18 18 18 18 17 16 15 14 14 14 13 12 11 11 9 9 10 10 11 12 13 15 16 16 17 18 20 19 17 17 18 17 18 19 20 19 18 16 15 14 13 12 10 9 7 5 4 3 3 3 3 3 4 5 6 7 8 8 11 11 5 6 6 7 8 8 8 7 8 10 10 9 9 9 10 10 10 11 11 11
25 24 22 21 20 18 19 18 18 17 17 16 14 14 14 13 12 11 11 9 10 10 10 11 11 12 14 15 16 16 17 19 19 19 18 18 18 17 19 19 18 17 16 15 14 13 12 10 9 7 5 4 2 2 2 2 3 4 5 5 6 7 8 10 8 5 5 6 7 7 8 8 7 8 9 9 8 8 9 9 10 10 11 11 12
24 23 22 21 21 19 19 19 18 18 17 16 15 15 14 14 12 11 10 9 10 11 10 11 11 12 13 14 15 17 17 17 18 19 18 18 18 17 17 17 17 16 15 14 13 13 12 11 9 7 6 4 2 1 1 2 3 4 4 5 6 7 9 8 5 5 5 5 6 6 7 7 7 8 9 8 8 8 9 9 9 10 11 12 12
24 22 21 21 21 21 21 20 19 18 17 17 16 15 15 14 12 11 10 9 10 11 10 10 11 11 13 14 15 16 17 16 16 19 18 17 18 18 17 16 16 16 15 14 14 13 12 11 10 8 6 5 3 1 1 2 3 4 4 5 6 6 8 8 4 5 5 4 5 6 6 7 8 8 9 8 7 8 8 9 9 9 10 11 12
24 22 22 22 22 22 22 21 20 19 18 17 16 15 15 14 12 11 10 10 10 11 10 10 11 12 13 14 15 16 16 16 16 18 18 18 18 18 17 16 16 16 15 15 14 13 12 11 10 8 7 5 3 2 1 2 3 3 4 5 6 5 6 8 5 5 5 5 5 5 5 7 7 8 9 7 7 7 8 8 8 8 9 10 11
24 23 23 21 21 22 22 22 22 20 19 18 17 15 15 14 12 12 11 10 10 10 9 9 11 12 13 13 15 15 15 15 15 17 17 18 18 19 18 17 17 16 16 15 15 14 13 12 10 9 7 6 3 2 0 2 3 3 3 4 5 4 6 8 6 5 5 6 6 4 5 5 6 8 8 7 7 7 7 6 6 7 8 9 11
23 22 23 20 18 19 18 20 21 19 20 19 17 16 15 14 13 12 12 11 10 11 9 9 10 11 13 13 14 15 16 15 16 16 17 19 19 18 18 18 18 17 16 16 15 14 13 12 10 9 8 6 3 2 0 1 2 2 3 4 4 4 6 8 5 5 4 5 5 4 5 5 6 8 7 6 6 6 6 5 5 7 7 9 13
23 23 23 18 15 17 16 16 19 18 19 18 17 16 16 15 14 13 12 12 11 11 10 10 11 11 11 13 13 15 15 15 16 15 17 19 19 19 19 19 18 17 17 16 15 15 14 12 11 9 8 6 4 2 1 1 2 2 2 3 4 4 5 6 5 5 4 4 4 4 5 5 6 7 6 6 5 5 5 4 6 7 7 10 15
22 22 21 17 14 16 16 15 17 18 17 17 16 16 16 16 15 14 13 12 12 11 10 10 12 12 11 12 12 14 13 13 14 14 16 19 20 20 20 19 19 18 17 16 16 15 14 13 11 10 8 6 4 2 1 1 1 1 2 3 4 4 3 4 5 5 4 3 4 4 5 5 6 6 5 5 4 5 5 5 7 8 7 11 17
22 20 17 16 15 15 16 16 16 18 18 17 16 16 16 16 14 14 13 12 12 12 10 11 12 13 12 12 13 14 12 11 12 12 14 17 19 21 21 20 19 19 18 17 16 15 14 13 11 9 8 6 4 3 2 1 1 1 2 2 3 2 2 4 6 5 5 3 4 5 5 6 6 5 4 4 4 4 5 7 9 8 8 13 17
22 20 16 16 15 14 16 16 16 18 19 17 16 16 16 16 15 14 13 13 14 12 10 11 11 12 13 13 13 13 13 12 12 11 13 15 18 21 21 21 20 19 18 17 16 15 14 13 11 9 8 6 4 3 2 2 1 1 1 2 1 0 2 5 5 5 5 4 5 6 5 5 5 4 3 4 4 4 6 8 9 10 12 16 16
22 20 17 17 16 14 16 17 16 18 19 18 17 16 16 16 15 14 14 13 14 12 11 11 11 12 13 13 10 13 14 13 13 13 13 13 16 20 22 21 21 20 18 17 16 16 14 13 12 10 8 6 5 5 4 3 2 1 1 1 2 2 3 5 4 4 5 4 5 6 5 5 4 3 3 4 4 5 8 9 11 13 15 16 13
20 21 17 17 17 15 16 17 17 19 19 18 17 17 17 16 15 14 14 13 14 12 11 11 11 13 14 13 11 13 15 13 13 13 11 11 11 16 19 18 18 19 18 17 16 16 14 12 11 10 7 6 7 7 7 6 4 3 3 2 3 2 3 5 4 4 3 4 5 5 6 6 4 3 3 4 5 7 10 11 13 14 14 12 10
20 21 19 17 18 16 16 17 17 19 19 18 16 17 17 16 15 15 15 15 15 13 11 12 13 15 15 14 13 13 14 13 13 13 12 11 11 11 14 13 12 16 19 17 16 17 14 11 10 9 8 8 8 8 8 7 5 5 4 4 4 3 3 4 4 5 3 4 5 4 5 5 5 4 4 4 7 10 11 12 13 12 11 9 8
20 21 22 18 17 17 17 17 17 18 19 18 16 16 17 16 15 16 16 16 16 14 11 13 16 18 16 14 14 14 14 13 13 13 12 13 13 12 12 12 11 14 18 18 17 17 15 13 12 11 10 8 8 8 8 6 5 5 5 5 5 3 4 5 5 5 4 4 4 3 4 5 5 5 5 6 9 11 11 11 11 9 8 7 7
22 22 22 19 17 18 18 17 17 18 19 19 17 15 15 16 16 17 17 17 17 13 11 14 17 18 16 15 14 14 14 13 12 12 12 13 14 14 14 13 13 13 16 17 16 16 16 14 14 12 10 7 8 8 7 6 5 6 6 6 6 4 5 6 5 6 6 4 3 3 4 5 6 6 7 8 10 10 10 9 8 7 6 5 6
23 23 21 20 18 17 19 18 17 18 19 19 17 14 15 16 17 17 16 17 17 12 11 15 18 18 16 15 15 15 14 13 12 12 12 13 12 13 13 12 13 13 14 16 15 15 15 14 13 11 9 8 8 8 7 6 6 7 7 6 6 4 5 6 6 6 6 4 2 4 4 5 6 7 8 9 9 8 7 6 5 5 5 5 6
22 22 20 19 18 17 19 20 18 17 18 18 16 14 15 16 18 17 16 17 15 11 13 17 18 18 17 17 16 15 15 14 13 13 12 12 11 11 11 11 11 12 12 14 14 14 13 11 10 9 8 8 8 8 7 6 6 7 7 6 5 5 5 6 6 6 6 3 2 4 5 6 8 9 9 9 7 6 4 4 3 3 4 5 5
23 23 22 21 19 18 19 22 21 17 18 19 17 15 15 15 16 17 16 16 14 12 15 18 19 19 18 18 17 16 15 14 14 13 13 12 12 11 11 11 10 10 11 12 12 12 11 9 9 8 8 8 8 8 7 7 7 6 6 5 6 5 6 8 7 6 5 4 2 4 5 7 8 10 9 7 5 4 3 3 3 3 4 4 5
25 25 24 20 17 17 20 22 22 18 18 18 16 15 15 14 15 16 16 15 13 14 16 18 19 20 19 19 18 17 16 15 15 14 13 13 12 11 11 10 10 10 10 10 11 11 11 9 8 8 9 9 9 9 8 7 7 6 6 6 6 6 8 8 7 6 5 4 3 1 4 8 9 9 8 5 3 2 2 3 3 3 4 4 5
26 25 23 18 15 16 17 19 20 19 18 18 16 16 14 14 15 16 16 15 13 15 17 18 20 21 20 20 19 18 17 16 15 14 14 13 12 11 11 10 10 9 9 9 9 10 9 9 8 8 9 9 10 10 8 8 7 7 7 7 6 7 7 5 3 6 5 3 2 2 2 8 9 8 6 3 2 2 2 2 3 4 4 4 6
26 25 24 19 16 17 15 15 17 18 19 18 16 16 15 14 14 14 14 15 13 15 18 19 21 22 21 21 20 19 18 17 16 15 14 13 13 12 10 10 9 8 8 8 8 8 8 8 8 9 9 9 9 9 8 8 8 8 8 7 7 8 9 5 3 4 3 2 1 0 0 4 5 5 5 2 2 2 2 2 3 4 4 4 6
27 26 25 23 20 20 18 17 18 19 20 19 17 16 16 14 14 14 15 17 14 14 18 20 21 23 22 22 21 20 18 17 17 16 13 12 12 11 10 9 9 9 8 8 8 8 8 9 9 9 9 9 8 8 8 8 9 8 9 9 8 8 9 7 4 3 2 3 4 4 4 3 2 3 4 2 2 2 2 3 2 3 3 4 5
27 27 26 26 24 22 21 19 19 20 20 20 18 17 17 16 14 14 16 19 16 14 18 21 21 24 23 19 18 19 17 15 16 16 14 12 10 9 10 10 11 11 9 9 9 9 10 10 10 10 10 9 9 8 9 9 9 9 9 9 8 7 9 7 5 4 3 4 5 7 8 6 4 4 2 2 3 2 2 3 2 2 2 3 4
26 28 27 27 26 24 22 20 19 19 20 20 19 17 18 19 17 16 16 19 17 14 17 21 22 24 24 18 15 16 14 13 14 15 13 11 10 10 11 12 12 11 10 9 9 9 10 11 11 10 10 10 9 9 9 9 9 9 9 8 7 8 8 7 6 6 5 5 6 9 8 7 5 3 4 4 4 4 2 2 2 2 2 3 3
25 27 28 28 27 25 23 21 19 18 18 19 19 17 18 20 19 18 18 19 18 14 16 21 23 25 26 22 16 14 14 13 13 13 13 12 12 12 12 13 12 10 9 9 9 9 9 10 11 10 10 10 9 9 9 9 9 9 8 8 9 9 8 8 7 7 6 5 8 9 9 8 4 3 4 5 5 4 3 3 2 2 2 2 3
24 25 29 30 28 26 24 22 21 19 18 19 19 17 17 19 20 18 18 18 17 15 15 20 24 25 26 25 18 14 14 13 12 14 14 14 14 13 13 13 12 10 10 9 9 9 10 10 11 11 10 10 9 10 10 8 8 9 7 9 11 10 9 9 7 8 7 6 9 9 9 7 3 3 3 4 5 4 4 3 1 2 3 3 3
26 25 28 30 29 28 26 25 23 21 19 19 19 18 17 18 20 19 18 17 17 16 15 19 25 25 26 26 20 15 15 13 14 15 15 15 14 13 14 13 11 10 10 10 9 9 10 10 10 11 10 10 10 11 10 10 9 8 8 10 11 11 10 9 8 8 9 8 10 9 7 6 4 3 4 4 5 5 4 2 3 3 4 4 3
31 26 25 28 30 29 28 27 25 22 20 20 19 18 19 20 20 20 19 17 17 17 15 17 24 26 26 26 22 19 18 16 15 16 16 16 15 14 13 12 11 10 10 9 9 9 10 10 11 11 10 9 9 11 11 11 9 8 10 11 10 11 11 9 9 10 10 9 9 8 7 6 5 5 5 5 5 5 4 2 4 5 3 4 4
36 29 24 27 30 29 29 29 26 24 22 22 19 18 20 23 22 21 20 17 17 18 17 17 22 26 26 26 26 24 21 19 17 17 17 16 15 14 14 13 12 11 10 10 10 11 11 11 12 11 11 10 10 11 11 10 9 9 9 9 8 8 10 10 11 12 12 10 10 9 8 6 6 6 6 5 5 3 3 3 4 4 4 2 2
37 31 25 28 31 30 30 29 28 26 24 23 20 17 20 24 25 22 20 18 18 19 19 17 19 25 27 25 26 25 21 19 18 17 18 17 16 15 15 14 13 11 10 11 11 12 11 12 13 12 11 11 11 11 11 9 9 9 8 8 7 7 9 11 13 14 13 12 11 10 9 6 6 7 6 5 4 4 4 5 5 5 4 2 3
37 33 28 29 30 30 31 30 30 28 26 26 22 18 20 25 27 24 21 19 18 17 20 19 17 23 27 25 26 24 21 20 18 15 17 19 18 16 15 15 14 12 11 11 12 12 12 14 14 13 12 12 12 12 12 11 10 10 9 7 7 7 9 11 11 12 13 14 13 11 10 7 8 9 7 5 5 6 7 7 7 5 4 3 2
41 35 33 30 25 28 32 31 31 29 28 29 25 20 20 24 28 27 22 19 19 19 20 20 17 20 26 27 27 25 21 19 18 16 17 19 19 17 16 16 14 13 12 12 13 13 13 14 14 13 12 12 12 12 12 12 11 11 10 7 6 6 8 6 7 8 10 12 12 11 11 9 9 10 8 6 7 7 7 8 8 6 4 3 2
43 38 37 33 27 30 35 33 33 32 30 30 27 24 22 22 27 31 26 21 21 21 20 20 19 19 25 29 28 25 22 20 19 18 17 18 18 18 17 15 14 13 12 12 13 14 14 14 14 13 13 12 12 11 11 11 12 12 11 10 9 7 4 3 5 5 7 10 11 11 11 10 10 11 9 8 9 8 8 9 8 7 5 5 3
41 37 36 35 33 35 37 36 36 35 34 32 28 27 27 24 26 33 32 25 22 21 18 19 18 18 24 28 28 26 23 22 21 19 18 18 18 19 17 16 15 14 13 13 14 14 14 15 14 13 12 11 11 11 11 11 12 13 13 13 13 12 9 6 7 6 5 9 11 11 11 11 12 12 11 10 10 11 11 10 8 7 7 6 5
39 38 37 37 37 36 36 38 38 37 36 35 31 29 30 27 27 31 34 32 28 23 19 18 19 21 23 24 25 24 22 22 21 20 19 19 20 19 18 16 15 14 14 14 14 15 15 14 13 12 12 11 12 11 11 11 12 13 14 15 15 16 14 12 13 11 9 9 10 11 11 11 14 13 13 11 10 13 14 10 8 8 8 7 6
40 41 40 39 38 36 37 38 40 39 37 37 35 32 31 31 29 30 33 36 33 25 20 19 20 22 23 22 23 21 20 20 20 20 20 19 20 20 18 17 16 15 15 14 14 15 15 14 13 13 12 12 12 11 11 12 11 12 13 14 14 16 14 12 14 13 12 12 9 10 11 12 14 15 16 14 13 14 14 10 9 9 9 9 7
42 44 43 41 40 38 38 38 39 39 39 39 38 35 33 33 32 31 32 35 32 25 22 21 21 22 22 23 23 21 19 19 20 21 21 20 21 20 18 17 17 16 16 15 15 15 15 14 13 13 13 13 12 11 12 12 10 11 12 10 11 13 12 12 13 12 12 13 10 9 11 11 11 14 18 17 17 16 14 12 11 10 10 9 7
43 44 43 42 41 39 37 36 36 37 39 39 39 38 36 35 34 33 33 33 32 28 24 22 23 23 24 24 24 22 20 21 23 24 22 21 21 19 18 18 17 17 16 15 16 16 15 14 14 13 13 13 12 12 13 13 12 12 12 11 11 12 12 13 13 12 12 12 11 10 10 10 10 12 16 16 17 17 14 14 13 11 11 10 8
Wind_Direction
179 178 171 169 170 168 166 168 170 169 165 164 167 174 185 184 180 172 166 161 161 161 161 163 164 165 161 161 161 160 158 157 157 156 156 158 159 153 155 153 148 145 139 137 133 130 123 115 115 116 113 105 97 95 95 90 85 81 78 74 70 67 64 62 61 62 66 65 61 57 55 56 58 58 59 60 60 59 62 67 62 56 57 54 52
174 180 177 167 169 167 166 169 169 170 167 165 168 174 182 181 177 171 167 163 163 165 166 167 167 168 166 168 167 167 165 162 164 165 162 163 163 158 159 156 149 145 142 140 137 133 125 119 120 119 114 105 100 99 97 90 85 80 76 73 69 67 63 60 60 61 63 65 62 57 52 51 54 55 56 56 58 60 59 64 67 61 59 57 55
172 180 177 169 169 166 166 169 169 171 168 167 170 173 180 177 173 169 166 167 168 172 173 174 174 175 174 175 175 175 171 166 169 171 170 169 167 163 165 160 150 147 145 143 141 137 127 125 125 121 115 108 103 101 97 92 85 79 75 70 67 65 62 59 58 60 61 65 64 57 50 47 50 52 53 52 53 57 57 57 60 59 57 57 55
173 177 173 169 169 167 165 167 170 172 170 170 171 173 177 173 168 166 165 169 173 178 181 182 183 182 184 184 183 182 175 169 169 169 172 172 169 166 167 162 153 151 149 146 145 139 132 130 130 124 118 110 103 101 97 92 86 78 73 68 66 63 60 59 58 58 59 61 65 61 50 44 45 49 51 51 52 54 54 52 53 53 52 53 52
173 176 171 168 171 169 165 166 169 172 172 170 172 174 174 169 166 163 165 168 171 174 180 184 185 186 188 188 187 187 178 168 167 167 168 169 169 167 169 166 158 157 153 150 149 142 137 136 134 127 120 111 103 102 98 94 88 77 70 67 64 63 60 59 58 57 58 60 67 70 59 49 43 47 51 50 53 53 52 50 50 49 47 50 51
172 177 173 169 171 169 165 165 169 172 172 172 173 174 173 168 164 163 163 162 163 165 172 182 185 186 188 188 185 185 178 166 166 168 167 167 168 168 170 169 163 161 157 154 152 146 141 140 137 130 124 113 105 102 100 96 87 77 67 64 62 62 59 58 58 55 59 61 65 71 68 60 47 47 53 51 52 53 53 50 49 47 43 46 51
174 176 176 173 171 168 164 164 169 172 172 174 174 175 172 167 165 163 159 155 156 157 164 174 179 179 181 179 174 176 174 167 168 172 169 168 167 169 172 170 165 163 159 157 154 149 146 145 141 136 128 115 107 101 99 93 84 75 66 62 61 63 59 57 58 54 59 61 61 67 71 70 54 48 50 50 50 52 54 51 48 46 41 41 47
176 175 176 176 172 166 164 166 170 172 173 174 175 176 172 167 166 162 156 151 150 151 155 163 165 165 168 166 161 167 167 164 168 171 169 169 168 169 172 169 166 164 162 159 156 152 151 151 147 143 132 118 109 101 95 88 81 73 66 62 63 65 58 56 57 53 57 60 60 65 68 67 55 46 46 48 48 49 52 50 46 44 41 38 41
175 175 176 177 174 166 165 167 170 172 175 175 176 177 172 168 166 163 157 148 147 148 149 153 155 155 159 157 155 160 161 163 168 168 167 168 167 169 170 168 166 165 164 161 158 156 157 157 153 150 137 125 112 103 96 86 79 72 67 66 68 64 57 55 52 54 57 58 59 65 68 68 56 40 41 46 48 50 51 48 40 38 40 38 39
174 174 176 176 173 169 167 167 169 172 177 177 176 177 173 170 167 164 156 147 146 146 146 147 148 150 154 154 153 158 161 166 168 167 165 164 167 169 169 169 167 165 166 164 161 160 161 162 161 157 145 133 117 108 98 87 79 69 65 70 76 64 55 52 50 56 63 61 64 66 62 65 55 34 38 46 49 54 55 50 40 35 36 36 37
174 174 175 175 172 173 171 169 171 172 179 181 177 178 175 171 167 165 158 149 145 145 144 143 144 145 151 152 153 159 163 167 165 166 166 164 168 169 171 170 167 167 167 166 164 164 165 167 169 167 153 138 121 110 100 89 78 65 61 69 76 64 53 56 57 61 66 57 62 62 56 55 40 31 42 46 50 53 52 48 40 36 35 35 34
175 174 174 174 172 175 173 172 174 173 178 183 181 179 177 172 168 166 162 151 149 148 141 140 142 143 148 150 152 157 162 165 162 164 168 167 168 169 172 170 167 168 168 167 167 166 169 173 176 176 162 143 122 107 98 89 78 60 58 66 71 63 53 64 70 67 66 58 57 61 59 52 29 34 49 46 49 48 45 42 37 36 35 35 32
175 175 176 174 174 176 175 175 176 176 178 185 186 180 178 174 169 169 164 155 153 150 141 138 140 143 149 151 151 154 160 163 161 166 171 168 169 171 172 169 168 169 170 169 169 171 173 178 183 182 171 154 128 104 92 87 77 57 60 71 71 64 57 70 80 70 65 64 58 61 55 43 24 39 53 48 49 44 42 40 38 38 34 32 29
176 177 177 174 175 177 176 178 178 179 180 187 189 181 180 176 172 171 165 158 156 152 143 138 140 145 150 152 152 154 159 162 163 168 170 169 170 174 173 170 169 171 172 172 171 176 179 183 188 188 181 166 142 107 89 84 70 60 68 78 75 69 64 68 76 75 68 60 59 63 50 37 28 43 50 48 50 44 43 42 40 40 33 28 24
177 178 180 175 175 179 178 179 180 182 184 189 191 184 181 178 175 173 165 160 156 154 148 140 143 148 151 154 154 156 157 159 167 170 169 171 172 174 175 171 172 174 174 174 176 180 183 188 192 194 189 175 161 138 106 89 69 66 75 80 75 71 77 77 70 70 66 55 55 60 54 40 34 43 48 48 53 49 45 42 40 38 31 25 21
178 180 183 180 179 181 181 181 183 185 188 191 192 187 182 180 177 172 167 164 160 156 152 146 145 150 155 157 159 161 159 160 171 172 169 173 176 177 176 173 174 177 177 177 180 184 187 190 194 199 196 184 171 155 122 86 72 71 78 80 77 73 84 93 80 64 63 59 56 56 54 38 34 45 49 50 55 52 46 42 37 34 30 26 20
179 181 184 184 182 183 182 182 185 187 190 193 194 189 182 182 178 173 170 169 167 160 159 154 149 153 158 160 163 166 164 165 172 172 171 176 180 181 178 176 178 179 180 181 183 187 189 193 197 201 199 190 177 154 120 74 71 72 80 79 80 75 78 90 83 69 68 67 65 63 54 32 33 48 50 52 58 51 43 42 37 32 31 24 15
182 181 183 185 183 184 183 184 186 187 191 193 193 190 184 183 180 176 174 175 174 168 167 164 158 155 158 163 165 169 170 169 172 173 177 181 183 185 182 180 182 182 183 184 186 190 192 197 201 202 201 195 183 153 86 64 75 71 84 80 77 73 66 76 76 69 64 62 60 61 58 34 41 56 53 55 57 47 37 38 33 25 23 15 6
186 183 185 186 182 181 180 183 185 184 189 190 188 190 187 183 184 181 177 180 180 177 174 173 171 161 159 164 166 171 174 174 177 178 182 185 186 188 187 185 186 186 186 187 190 193 195 200 205 204 202 200 194 165 122 69 86 71 80 79 70 63 64 71 75 68 56 64 71 62 58 48 58 64 56 51 46 35 25 26 25 11 5 5 0
186 187 190 185 178 180 177 181 184 182 187 187 185 191 190 185 187 184 182 183 183 184 181 179 177 170 164 163 166 172 175 179 179 180 185 186 189 191 191 190 190 191 190 191 193 196 198 203 208 208 206 206 206 192 188 117 104 82 76 74 62 57 68 80 84 74 58 68 82 69 58 60 69 65 52 44 33 18 12 5 7 358 354 359 353
187 187 190 183 177 182 180 181 184 183 184 184 184 193 194 187 187 186 185 185 185 190 188 184 178 176 174 165 166 172 177 180 179 184 189 188 192 195 194 193 194 194 194 195 197 199 201 205 209 213 214 214 216 208 197 165 125 102 89 69 61 67 85 96 87 81 77 74 79 73 64 66 67 57 43 37 22 5 358 349 352 350 349 349 344
188 188 188 184 182 183 185 184 184 184 183 184 183 192 198 187 186 189 188 187 189 195 193 189 182 179 178 169 171 176 180 180 179 187 190 190 195 199 199 197 197 197 198 199 202 203 204 207 211 216 218 221 227 219 222 204 161 124 93 53 57 88 117 101 93 88 87 90 88 76 66 68 62 51 37 19 14 357 341 341 347 347 340 337 337
191 191 188 187 186 184 188 185 185 186 183 187 185 189 199 187 186 194 192 194 194 196 194 188 183 183 180 174 177 181 181 183 181 181 185 192 198 201 203 201 200 201 202 204 206 208 208 211 213 216 221 225 218 204 220 236 211 152 70 30 16 236 124 102 101 103 102 102 91 78 67 68 58 43 27 2 356 337 328 338 345 341 333 332 335
195 195 192 190 188 185 189 185 186 189 184 189 187 188 197 187 187 197 195 199 201 196 190 188 185 186 186 179 180 183 184 188 185 182 185 192 197 202 205 204 204 204 205 207 210 212 212 215 217 217 220 219 200 189 195 217 235 217 236 282 275 269 120 110 111 115 116 110 90 82 73 65 54 26 0 342 323 313 321 333 336 330 327 329 335
198 198 195 194 190 186 188 186 187 191 187 189 188 188 194 188 187 195 196 200 203 198 189 189 186 185 190 186 180 183 187 192 188 184 185 186 191 199 204 206 205 206 207 207 209 214 213 213 220 218 211 203 198 195 195 213 232 217 235 256 259 258 123 119 118 111 115 107 88 80 72 57 46 22 344 324 309 313 320 323 323 321 323 329 338
201 200 204 203 194 189 187 188 189 191 190 190 190 187 190 190 188 192 198 200 198 199 192 190 191 189 192 188 182 183 186 191 188 185 186 186 186 188 196 200 200 204 208 204 206 211 206 202 209 208 203 201 203 206 209 218 225 224 248 253 248 242 135 129 122 116 118 104 87 74 63 43 29 14 343 321 311 315 317 316 317 319 325 333 345
211 210 215 210 195 190 188 189 190 192 192 191 191 188 188 191 195 195 198 201 198 197 195 194 195 194 193 188 184 184 185 188 186 184 188 190 189 187 193 196 193 201 206 203 208 211 204 201 205 206 206 205 205 212 220 223 217 227 250 247 246 239 151 138 134 131 125 107 93 66 45 27 15 1 336 321 316 317 317 316 320 323 330 340 354
220 216 216 212 200 190 188 191 190 192 194 193 191 190 189 191 200 202 198 203 202 195 195 196 198 197 194 187 183 183 183 185 183 182 184 187 191 195 199 200 196 200 204 200 206 210 207 209 214 216 211 203 206 212 217 222 220 229 244 248 248 230 162 147 143 134 124 117 92 54 29 10 1 349 333 324 320 318 317 319 323 328 339 349 2
223 221 217 215 210 196 189 192 192 191 194 196 192 191 192 191 200 204 200 206 204 194 196 198 199 198 193 187 183 181 181 182 180 178 180 182 187 192 196 199 196 200 202 199 202 209 210 213 217 219 210 202 211 214 210 216 228 232 237 245 240 203 165 152 143 134 129 125 60 26 6 357 353 343 335 328 322 319 318 321 327 336 348 359 9
226 226 220 218 218 210 196 190 193 193 194 197 193 191 195 194 200 204 204 208 203 196 200 199 199 198 194 188 184 181 181 181 180 178 178 178 179 181 184 188 192 195 198 201 205 209 208 210 216 213 208 206 210 215 210 209 222 229 233 234 219 188 162 146 139 137 136 123 19 359 352 349 345 339 333 326 322 323 322 329 341 348 355 8 17
228 228 222 221 221 217 207 196 194 194 194 198 195 192 196 196 200 205 208 208 203 201 202 200 200 199 195 190 184 183 184 184 182 180 179 178 177 177 179 182 188 191 194 202 206 206 202 203 207 201 203 205 204 213 208 198 206 216 221 211 200 183 154 151 151 140 130 116 45 350 344 344 339 334 329 323 324 327 331 341 351 358 6 14 22
227 228 225 220 213 213 215 205 199 197 194 195 195 194 195 198 200 204 209 208 206 205 203 200 200 200 197 191 187 187 188 189 187 184 183 182 181 181 182 183 188 192 196 201 204 205 202 199 200 196 199 199 203 212 204 198 202 201 201 194 190 169 163 181 172 142 132 121 104 31 343 337 333 328 324 320 327 337 342 343 348 0 12 15 25
230 228 226 216 201 206 211 204 201 200 198 195 195 196 195 197 200 203 207 207 207 206 204 202 201 202 198 192 191 192 192 192 191 189 187 187 188 188 187 188 193 200 203 204 208 209 202 200 202 200 202 204 210 215 207 203 204 197 193 190 183 163 173 208 180 148 145 131 130 128 347 332 332 330 325 320 337 349 347 342 352 3 6 11 26
235 230 227 219 207 209 208 199 199 199 202 201 195 198 196 197 201 201 203 205 208 206 203 203 203 203 200 194 194 194 195 195 194 193 192 193 195 195 192 192 199 205 208 209 211 213 207 205 206 206 210 209 212 214 204 201 206 201 189 180 176 168 175 191 180 173 167 169 253 207 246 325 334 328 325 322 333 336 342 347 354 355 357 12 25
239 236 231 227 221 218 217 213 211 206 207 206 198 200 199 197 201 201 204 208 209 205 204 206 205 204 202 198 197 196 196 196 198 197 197 201 201 200 199 198 203 204 208 211 211 213 213 214 213 210 209 202 202 205 197 199 207 199 184 176 177 183 191 193 180 172 216 264 288 300 291 291 251 274 316 318 315 323 325 334 344 339 350 15 21
240 240 235 231 227 224 221 220 222 218 214 211 204 204 205 203 202 203 209 213 211 206 206 208 206 205 202 200 199 197 196 194 199 201 200 205 205 203 205 205 207 204 206 213 215 217 217 220 219 212 206 195 194 198 193 203 207 195 189 182 180 201 208 202 187 187 238 267 286 295 301 305 262 229 208 236 291 309 305 314 323 325 345 18 22
240 239 237 234 229 227 223 219 224 223 220 216 207 204 208 210 209 207 211 216 213 206 209 210 208 207 203 201 199 195 195 194 198 203 202 206 206 207 211 211 211 209 209 215 218 221 223 225 221 215 207 192 190 194 193 208 208 197 200 188 187 211 213 211 214 226 251 271 287 295 300 300 277 231 186 192 253 293 307 299 299 312 342 7 14
243 238 236 235 231 231 228 223 225 225 223 221 210 203 209 213 213 213 214 216 214 207 210 213 211 209 206 205 201 194 196 195 196 201 202 207 210 213 217 214 212 213 215 217 216 219 222 225 222 217 209 194 191 191 196 218 207 193 199 190 198 212 212 220 232 242 255 276 287 289 294 296 280 223 193 183 215 267 297 290 292 312 338 0 1
251 242 234 233 231 231 231 226 225 224 223 223 214 205 205 211 213 212 213 214 213 209 209 213 214 213 209 207 204 197 198 197 198 203 202 208 214 216 219 214 210 213 217 216 215 218 217 219 221 218 210 197 190 188 195 216 198 188 199 192 202 215 215 220 233 246 250 268 282 282 288 292 269 226 202 190 211 234 265 287 330 311 319 348 352
256 245 232 231 229 227 229 228 224 219 217 218 213 205 201 207 211 209 209 209 207 207 208 212 215 215 212 209 205 199 200 199 202 208 208 210 215 217 219 215 211 215 220 218 215 217 215 216 218 215 211 202 196 195 197 205 199 201 208 195 202 215 217 220 232 250 253 261 275 278 281 276 256 238 210 206 225 230 247 249 147 197 284 325 339
253 246 231 228 227 226 229 229 224 216 213 215 209 205 203 205 208 206 205 206 204 205 206 210 214 216 215 211 208 205 207 209 207 208 210 213 215 218 220 217 214 215 220 220 214 214 213 213 215 212 209 206 206 208 207 209 210 214 208 196 203 213 215 219 231 248 252 253 261 264 264 256 235 232 228 228 238 243 250 221 173 185 231 311 327
249 248 231 225 225 224 227 229 229 222 216 217 212 206 207 207 208 207 204 204 204 204 205 209 213 216 217 213 211 210 210 216 215 208 208 215 217 219 221 220 217 217 216 215 213 214 213 213 215 211 207 207 209 217 220 215 211 213 204 196 210 221 223 228 233 242 243 243 250 253 257 247 221 228 237 237 238 241 243 224 211 208 208 224 279
245 244 225 219 222 222 225 228 231 229 223 221 215 207 210 213 214 211 205 201 205 207 207 210 211 215 218 215 214 213 209 213 219 211 206 213 219 219 222 223 221 218 214 212 214 215 214 216 215 210 208 207 211 220 221 211 204 202 193 197 212 217 232 245 246 247 246 244 246 246 250 238 212 226 235 230 223 199 202 226 237 249 252 219 216
238 239 223 217 221 222 223 224 228 231 230 229 222 211 215 223 223 219 210 203 204 208 212 212 210 214 218 217 215 213 207 207 214 213 207 210 217 221 224 227 225 220 213 211 217 217 216 219 214 209 209 207 212 221 219 214 210 198 190 201 208 213 238 246 242 248 251 248 247 243 240 223 202 224 233 213 213 205 200 223 244 260 276 269 255
232 237 233 229 231 232 229 224 225 229 232 233 228 218 216 221 223 220 213 206 205 206 211 212 209 212 217 218 215 212 208 208 212 216 214 210 216 223 227 229 227 223 216 212 217 218 219 220 213 209 210 207 210 220 221 223 222 212 206 206 201 223 249 225 204 239 254 247 245 247 247 231 205 221 232 207 209 219 206 219 251 270 279 290 310
234 237 240 239 235 234 233 227 224 226 229 232 231 227 221 215 218 218 211 205 205 207 209 209 208 209 214 217 216 213 212 215 215 219 220 215 217 223 225 225 224 224 220 216 217 216 216 216 211 208 207 207 211 216 221 227 229 228 227 225 225 240 253 185 190 236 249 239 238 247 253 242 222 220 225 215 209 216 211 221 255 275 281 295 300
238 239 243 243 235 230 229 226 223 223 225 228 228 228 226 219 218 221 217 210 206 207 209 209 208 210 214 216 217 216 214 214 214 217 221 220 220 222 222 221 222 223 221 217 216 213 213 214 210 208 205 206 211 214 219 227 233 236 238 240 243 250 247 229 239 247 236 228 227 244 257 246 241 231 219 219 214 218 221 223 244 258 264 284 296
240 240 240 243 241 233 227 224 223 223 225 226 224 225 228 226 222 222 221 218 215 211 209 210 209 211 214 215 216 216 214 214 212 214 218 220 222 222 219 220 220 222 222 219 217 213 212 213 210 209 208 208 212 216 221 224 233 242 247 247 246 252 254 246 251 256 258 248 220 228 248 247 251 243 223 215 211 228 240 233 226 236 249 265 279
240 241 240 240 240 236 229 226 224 225 225 226 224 223 227 231 229 227 225 223 221 214 210 212 211 212 215 214 214 212 212 214 212 214 217 219 225 222 216 219 220 221 223 221 218 213 210 211 210 209 210 213 214 218 222 224 230 237 245 250 246 247 251 249 253 254 259 265 239 214 223 239 254 248 233 219 207 226 246 238 218 219 242 260 268
239 241 241 239 237 235 231 228 226 226 226 227 226 224 226 230 231 232 230 225 219 212 209 213 213 213 215 215 215 212 210 212 213 216 218 219 225 223 216 218 220 220 222 220 217 213 210 212 213 213 214 216 220 222 226 227 230 230 232 240 240 238 239 242 249 249 247 255 257 232 213 227 251 244 238 231 218 229 240 237 233 223 234 255 261
238 240 239 240 239 237 233 230 230 229 227 228 228 225 225 228 231 233 233 228 222 214 209 212 216 214 213 214 216 215 213 216 220 221 220 220 223 221 218 219 220 219 220 218 217 214 211 212 216 220 221 221 225 229 231 230 229 230 228 228 231 234 234 235 239 240 239 240 250 249 228 235 250 234 235 236 227 233 237 237 240 231 234 248 251